Tracking 29892 objects as of 21-Nov-2024
HD Live streaming from Space Station
objects crossing your sky now

STARLINK-5652

Track STARLINK-5652 now!
10-day predictions
STARLINK-5652 is classified as:


NORAD ID: 55334
Int'l Code: 2023-013D
Perigee: 567.8 km
Apogee: 569.6 km
Inclination: 43.0 °
Period: 95.9 minutes
Semi major axis: 6939 km
RCS: Unknown
Launch date: January 26, 2023
Source: United States (US)
Launch site: AIR FORCE EASTERN TEST RANGE (AFETR)
Your satellite tracking list
Your tracking list is empty




NASA's NSSDC Master Catalog

Two Line Element Set (TLE):
1 55334U 23013D   24325.54306547  .00001896  00000-0  15867-3 0  9993
2 55334  43.0058 356.7762 0001321 268.9465  91.1226 15.01722563100818
Source of the keplerian elements: AFSPC